View from above orbital plane
|
View from above satellite
|
Ground track
|
The orbit data is extracted from the following two-line orbital elements,
1 40012U 14033C 18114.23977267 .00000220 00000-0 40297-4 0 9996
2 40012 97.8161 352.4879 0058956 14.5198 345.7687 14.73797963206756
Epoch (UTC): | 24 April 2018 05:45:16 |
Eccentricity: | 0.0058956 |
inclination: | 97.8161° |
perigee height: | 607 km |
apogee height: | 690 km |
right ascension of ascending node: | 352.4879° |
argument of perigee: | 14.5198° |
revolutions per day: | 14.73797963 |
mean anomaly at epoch: | 345.7687° |
orbit number at epoch: | 20675 |
The dashed part of the orbit path shows where the satellite is in the earth's shadow,
|
|